This is the latest recevied weather packets stored in our database for station/object AJ5AG. If no packets are shown the sender has not sent any weather packets the latest 10 day(s).
| Time | Temp. | Humidity | Pressure | Rain* | Wind** | Luminosity | Snow |
|---|---|---|---|---|---|---|---|
| 1777338661 | 27.78° C | 80% | 1012.9 hPa | 0 mm | - | 0 W/m² | - |
| 1777338359 | 27.78° C | 80% | 1013.3 hPa | 0 mm | - | 1 W/m² | - |
| 1777338055 | 27.78° C | 80% | 1013.1 hPa | 0 mm | - | 1 W/m² | - |
| 1777337751 | 27.78° C | 79% | 1013.2 hPa | 0 mm | - | 2 W/m² | - |
| 1777337449 | 27.78° C | 79% | 1013 hPa | 0 mm | - | 3 W/m² | - |
| 1777337145 | 28.33° C | 78% | 1013 hPa | 0 mm | - | 4 W/m² | - |
| 1777336843 | 28.33° C | 78% | 1012.8 hPa | 0 mm | - | 5 W/m² | - |
| 1777336542 | 28.33° C | 77% | 1012.8 hPa | 0 mm | - | 8 W/m² | - |
| 1777336239 | 28.33° C | 77% | 1012.9 hPa | 0 mm | - | 13 W/m² | - |
| 1777335937 | 28.89° C | 77% | 1012.8 hPa | 0 mm | - | 20 W/m² | - |
| 1777335633 | 28.89° C | 76% | 1012.8 hPa | 0 mm | - | 22 W/m² | - |
| 1777335331 | 28.89° C | 75% | 1012.9 hPa | 0 mm | - | 22 W/m² | - |
| 1777335028 | 29.44° C | 73% | 1012.7 hPa | 0 mm | - | 16 W/m² | - |
| 1777334725 | 30° C | 71% | 1012.9 hPa | 0 mm | - | 13 W/m² | - |
| 1777334423 | 30° C | 70% | 1012.8 hPa | 0 mm | - | 25 W/m² | - |
| 1777334119 | 30° C | 71% | 1012.6 hPa | 0 mm | - | 54 W/m² | - |
| 1777333819 | 30° C | 71% | 1012.7 hPa | 0 mm | - | 65 W/m² | - |
| 1777333516 | 30° C | 71% | 1012.6 hPa | 0 mm | - | 82 W/m² | - |
| 1777333212 | 30° C | 71% | 1012.5 hPa | 0 mm | - | 73 W/m² | - |
| 1777332911 | 30° C | 71% | 1012.4 hPa | 0 mm | - | 55 W/m² | - |
| 1777332609 | 30° C | 71% | 1012.3 hPa | 0 mm | - | 45 W/m² | - |
| 1777332304 | 30° C | 71% | 1012.5 hPa | 0 mm | - | 35 W/m² | - |
| 1777332001 | 30° C | 71% | 1012.3 hPa | 0 mm | - | 46 W/m² | - |
| 1777331699 | 29.44° C | 71% | 1012.4 hPa | 0 mm | - | 42 W/m² | - |
| 1777331396 | 30° C | 72% | 1012.5 hPa | 0 mm | - | 45 W/m² | - |
* Rain latest hour (hover to see other rain measurements)
** Current wind speed in m/s (hover to see current wind gust speed)